Flag for U.S.A. Weather past 2 weeks in Garden Grove, California, U.S.A.

Now
62 °F

Partly sunny.


Feels Like: 62 °F
Forecast: 58 / 68 °F
Wind: 6 mph from North

Location: Fullerton Municipal Airport


UV Index: 0 (Low)

Visibility: 9 mi


Pressure: 29.85 "Hg

Humidity: 73%

Dew point: 53 °F

Location of Garden GroveLocation

Historic Weather in Garden Grove

°F

Garden Grove temperature yesterday

Maximum temperature yesterday: 72 °F (at 1:53 PM)
Minimum temperature yesterday: 58 °F (at 12:53 AM)
Average temperature yesterday: 63 °F

Past Weeks' High & Low Weather Summary

 TemperatureHumidityPressure
High94 °F (Apr 8, 2:53 PM)87% (Apr 15, 2:53 AM)30.14 "Hg (Apr 15, 2:53 AM)
Low47 °F (Apr 3, 6:53 AM)10% (Apr 8, 3:53 PM)29.78 "Hg (Apr 16, 4:53 PM)
Average65 °F56%29.97 "Hg
* Reported Apr 2 5:00 PM — Apr 17 5:53 PM, Garden Grove, Weather by CustomWeather, © 2014

Note: Actual official high and low records may vary slightly from our data, if they occured in-between our weather recording intervals... More about our weather records

Advertising

Historic Weather Conditions — Data for Previous 24 hours

 ConditionsComfort  
Time TempWeatherWind HumidityBarometerVisibility
5:53 PM
Apr 17
65 °FPassing clouds.8 mph66%29.85 "Hg10 mi
4:53 PM66 °FSunny.9 mph63%29.84 "Hg9 mi
3:53 PM68 °FPassing clouds.7 mph61%29.84 "Hg10 mi
2:53 PM68 °FSunny.9 mph61%29.87 "Hg10 mi
1:53 PM68 °FSunny.13 mph61%29.87 "Hg10 mi
12:53 PM70 °FSunny.3 mph55%29.88 "Hg10 mi
11:53 AM70 °FPassing clouds.5 mph55%29.90 "Hg10 mi
10:53 AM65 °FPartly sunny.6 mph66%29.90 "Hg8 mi
9:53 AM63 °FOvercast.3 mph70%29.90 "Hg7 mi
8:53 AM62 °FOvercast.No wind70%29.89 "Hg7 mi
7:53 AM62 °FOvercast.5 mph73%29.88 "Hg7 mi
6:53 AM60 °FOvercast.No wind78%29.87 "Hg7 mi
5:53 AM60 °FOvercast.No wind80%29.85 "Hg8 mi
4:53 AM60 °FOvercast.3 mph78%29.85 "Hg9 mi
3:53 AM60 °FOvercast.3 mph78%29.84 "Hg9 mi
2:53 AM60 °FOvercast.3 mph78%29.84 "Hg9 mi
1:53 AM60 °FOvercast.5 mph78%29.85 "Hg9 mi
12:53 AM61 °FOvercast.5 mph78%29.87 "Hg9 mi
11:53 PM
Apr 16
61 °FOvercast.3 mph78%29.86 "Hg10 mi
10:53 PM60 °FClear.No wind80%29.85 "Hg9 mi
9:53 PM60 °FClear.3 mph80%29.85 "Hg9 mi
8:53 PM60 °FClear.3 mph80%29.83 "Hg9 mi
7:53 PM61 °FSunny.6 mph78%29.81 "Hg9 mi
Weather by CustomWeather, © 2014

See weather overview